Theta_e
338 339 341 341 341 340 340 342 343 341 342 343 344 345 346 347 349 351 351 352 353 354 355 356 356 356 356 356 357 358 358 357 357 355 355 355 356 358 358 358 359 362 360 360 363 364 367 369 369 369 370 370 370 370 371 372 371 369 370 372 371 370 369
336 338 339 340 341 341 342 342 344 343 342 343 344 346 346 347 349 350 351 353 353 354 354 355 356 356 356 357 357 358 358 357 357 357 356 357 358 358 359 361 360 363 364 363 364 367 367 367 367 367 368 369 368 370 369 370 371 371 368 370 368 368 368
330 332 338 340 340 341 343 343 343 343 343 342 343 344 345 348 350 350 351 351 352 354 354 354 356 356 356 357 357 357 357 356 356 355 354 352 353 352 356 360 361 360 360 363 365 364 365 365 367 367 367 367 365 369 370 369 370 369 369 370 368 365 368
329 331 332 337 341 343 343 344 344 343 343 343 343 344 345 349 350 351 351 350 351 352 353 353 354 354 356 356 356 357 356 357 356 354 353 353 353 353 355 357 359 360 360 360 361 362 361 364 365 366 367 367 367 368 368 367 367 368 368 369 366 366 368
329 331 333 334 338 341 342 343 343 345 343 343 343 345 346 347 347 348 349 350 350 350 351 351 352 353 355 356 355 355 355 356 356 355 355 354 356 355 353 352 354 356 357 359 361 362 363 364 363 364 365 367 366 367 367 368 366 368 368 369 366 365 364
327 329 331 334 336 340 341 342 343 344 344 343 342 343 344 345 346 346 347 349 349 350 352 352 352 353 354 354 354 354 356 357 357 357 355 356 356 353 352 352 352 353 354 357 359 359 361 361 361 362 362 362 362 362 364 365 365 366 367 367 366 364 362
325 328 330 334 337 339 341 342 342 343 345 345 343 343 344 343 344 345 346 347 348 348 349 350 351 352 354 354 354 355 355 354 356 355 355 354 354 353 353 353 353 352 353 357 357 358 358 359 361 362 362 361 362 361 364 366 365 366 366 367 367 367 366
325 326 329 333 336 339 341 343 343 343 345 345 343 343 343 343 343 345 345 345 347 347 348 348 349 352 353 354 354 354 354 354 354 355 354 353 353 353 352 352 352 353 354 353 355 357 356 358 358 360 361 360 361 363 363 366 367 364 364 365 365 365 364
326 327 327 329 334 336 338 342 343 343 343 344 344 343 343 343 342 343 344 345 346 346 347 348 349 351 353 353 354 354 353 353 353 354 353 352 352 351 350 351 351 353 352 350 350 355 355 356 356 359 361 360 361 363 363 365 364 364 364 364 365 364 363
325 326 328 329 331 333 337 340 342 343 346 345 344 344 342 343 343 343 343 343 344 345 347 348 348 350 352 352 352 353 353 354 353 352 352 350 351 350 351 350 350 352 351 350 349 350 354 355 356 359 361 359 360 362 362 363 362 362 363 364 365 364 364
324 327 327 328 329 330 333 336 338 340 343 345 348 344 344 343 343 342 343 343 343 344 346 346 348 348 350 351 350 351 352 352 352 351 351 350 350 350 350 350 350 350 349 349 349 349 351 354 356 358 359 356 358 360 360 361 362 362 360 361 363 364 363
323 324 325 327 328 329 330 332 335 338 340 342 343 345 346 345 344 344 343 344 344 344 345 345 346 347 349 349 349 350 351 351 351 351 351 350 350 350 350 350 350 349 349 349 348 349 349 351 352 354 356 357 357 359 360 361 362 362 362 359 361 362 362
321 322 322 324 326 328 330 331 332 335 338 339 342 344 346 343 344 344 346 344 344 345 346 347 346 347 347 348 348 350 350 350 351 351 351 351 351 351 351 350 350 350 349 349 349 348 348 348 351 353 354 357 356 356 359 360 360 362 363 361 362 363 362
322 321 321 322 323 324 325 328 330 332 334 336 338 342 344 346 346 345 346 344 345 344 345 346 347 348 348 348 349 350 350 351 352 352 353 353 354 352 351 350 350 351 351 350 349 348 348 347 348 351 352 354 355 357 359 360 360 361 362 362 361 361 361
317 318 320 320 321 322 323 324 326 328 330 333 336 338 341 343 345 347 350 347 346 345 345 348 348 348 348 348 349 351 353 353 352 353 354 354 354 353 351 351 351 351 351 352 350 348 348 348 348 349 350 352 354 355 356 355 356 357 359 360 360 360 358
315 317 318 319 321 322 322 323 324 325 327 329 332 335 337 340 342 343 345 347 349 347 346 347 348 349 348 347 349 353 355 355 355 354 354 354 354 355 353 352 351 350 350 350 351 351 351 350 349 348 349 350 352 353 352 353 354 351 341 345 359 360 357
314 315 317 318 320 321 322 322 323 324 325 326 328 331 334 337 340 342 344 346 347 349 352 348 349 348 348 348 350 353 355 355 355 356 355 355 355 356 356 354 352 352 352 351 351 351 353 351 349 348 347 347 348 349 349 349 349 338 332 333 337 354 359
313 314 315 316 318 320 320 321 322 323 324 325 326 328 330 333 337 340 341 344 348 350 352 353 350 348 350 350 354 355 354 353 355 356 355 356 355 355 356 355 354 354 354 352 350 353 351 350 349 350 348 347 347 347 347 348 340 331 329 330 330 337 354
313 314 314 316 317 318 318 320 321 322 323 325 326 327 328 329 331 335 340 344 348 352 352 353 352 355 352 352 354 355 356 357 356 355 355 356 356 357 356 356 355 354 353 351 352 351 351 351 349 350 350 348 349 347 347 347 336 329 327 327 327 327 339
314 314 315 315 316 317 318 320 321 322 324 326 328 328 329 328 328 331 338 345 349 352 353 354 355 355 357 355 355 356 357 357 356 356 357 358 358 358 356 355 354 353 352 352 353 353 351 350 350 350 351 350 349 350 349 348 338 327 325 325 324 326 331
314 314 315 316 316 316 318 320 321 322 323 326 327 328 327 326 327 330 334 341 345 349 350 351 352 352 355 358 359 357 357 357 356 356 357 356 355 356 356 355 355 355 353 352 352 353 353 350 350 350 351 350 349 349 348 347 333 325 322 321 321 324 328
314 314 314 316 316 317 317 318 320 322 324 328 327 327 326 326 328 330 332 339 343 346 347 348 348 347 350 353 355 357 358 358 356 357 355 352 351 353 354 354 356 356 356 355 353 354 354 354 352 351 351 351 350 349 348 349 330 324 321 320 320 322 338
313 315 315 316 317 317 319 320 321 322 325 326 327 326 325 327 328 329 332 335 338 345 344 344 343 343 346 351 353 354 354 354 354 355 353 351 350 350 351 352 355 356 356 355 354 352 353 354 353 355 353 353 352 351 351 351 337 322 319 318 318 323 344
313 315 315 316 317 318 320 320 321 322 323 324 325 325 325 327 328 329 332 334 335 339 340 339 339 339 341 343 346 348 349 351 352 353 353 353 350 350 351 354 355 356 356 355 353 352 354 355 355 356 356 354 353 353 352 352 342 321 317 316 316 327 346
313 314 315 316 316 316 318 320 322 323 323 323 322 324 324 325 326 327 329 332 333 336 335 334 332 333 333 336 339 343 345 348 352 353 353 353 353 352 351 353 354 356 356 354 355 355 356 357 356 356 357 356 355 349 352 354 346 321 318 316 315 327 348
312 313 314 315 316 317 319 322 321 320 320 320 321 324 324 323 323 326 328 329 330 333 333 333 333 332 332 335 338 339 341 344 349 353 353 352 353 354 353 353 353 353 354 356 356 356 356 357 357 357 357 358 358 357 356 355 357 350 317 315 313 317 347
312 312 313 314 315 319 317 317 318 318 319 322 324 323 323 322 321 324 326 328 329 329 330 331 333 333 331 332 333 335 337 341 344 348 353 355 355 355 356 358 358 356 357 354 355 356 357 357 358 357 358 358 359 359 358 358 358 357 318 314 313 314 324
311 312 313 315 316 317 316 316 317 317 318 321 322 323 323 323 322 323 325 325 325 326 328 330 332 332 331 330 332 333 335 339 344 347 348 352 356 357 357 356 357 357 357 359 357 354 358 359 359 358 358 359 360 361 361 357 346 361 327 316 313 312 313
309 309 310 312 313 314 314 315 315 315 316 318 320 322 323 323 323 323 323 323 325 325 327 329 330 331 331 330 330 333 336 338 341 344 346 348 351 353 355 357 354 352 354 355 355 351 355 360 360 359 358 360 360 361 362 363 360 335 352 318 313 311 311
309 310 311 311 312 313 314 314 314 315 316 316 320 321 322 324 322 322 322 323 326 326 327 328 328 329 330 331 330 331 334 337 340 342 346 347 349 350 350 353 355 353 352 354 353 350 350 356 359 358 356 355 357 358 360 362 362 344 331 338 313 312 310
308 309 309 310 310 313 314 313 313 314 316 317 319 321 323 325 324 323 322 324 326 326 326 326 326 326 328 329 330 330 332 335 338 340 343 345 347 349 350 349 351 351 353 353 352 350 350 353 358 358 357 356 355 357 359 360 362 363 345 326 320 313 311
308 310 309 309 310 311 313 313 313 313 313 315 317 317 321 321 323 322 323 324 325 326 325 325 325 325 326 327 329 329 330 332 334 337 339 342 345 346 349 351 351 350 351 352 353 353 354 353 357 357 357 356 356 356 358 360 362 362 363 339 331 321 314
307 308 309 309 310 311 311 312 311 312 313 313 316 318 318 317 320 323 325 325 324 323 324 324 324 325 325 326 327 328 329 330 331 334 337 341 344 347 349 351 353 353 351 350 350 354 353 354 356 356 355 355 355 357 358 359 360 362 362 362 356 349 338
306 307 309 310 311 311 311 311 311 312 312 313 315 317 319 318 319 321 324 324 325 324 324 323 324 323 324 324 326 327 329 330 332 334 336 339 343 345 346 348 350 352 354 355 356 356 355 356 355 355 356 356 357 358 358 358 360 361 361 360 361 358 354
306 307 308 308 309 311 310 311 311 312 312 313 314 316 318 319 319 321 324 325 325 324 322 322 322 323 323 323 324 325 328 330 332 333 334 335 338 340 344 345 347 349 353 358 360 358 357 357 358 360 361 361 359 359 359 360 360 362 340 362 338 354 358
305 306 306 307 308 309 309 311 311 311 312 312 314 315 317 318 320 323 324 325 325 323 322 321 321 322 322 323 323 324 326 328 329 330 332 332 333 335 337 337 325 334 346 348 339 330 323 325 353 360 362 361 362 365 361 360 363 337 326 322 321 320 324
304 304 304 306 306 307 308 309 310 311 312 313 314 314 315 317 319 323 325 325 324 322 321 320 320 320 321 323 324 323 324 325 325 328 331 332 333 334 334 337 340 316 313 320 328 326 321 315 312 318 325 351 360 356 335 333 328 322 322 315 313 313 313
304 305 305 306 306 307 308 308 309 310 311 312 313 313 314 316 319 321 324 325 323 321 320 319 318 318 319 320 322 323 323 323 325 327 329 331 334 335 336 337 337 341 327 314 314 316 311 311 312 311 313 316 326 345 361 335 318 315 317 310 309 310 310
Wind_Speed
14 16 16 15 15 16 16 15 15 15 15 16 16 18 18 16 15 13 14 15 16 15 15 15 15 13 14 13 13 11 11 10 9 10 9 9 8 7 8 7 7 6 6 6 5 5 5 6 6 6 6 7 7 6 6 6 5 5 5 4 4 3 3
8 14 15 15 16 17 17 15 14 13 14 15 15 17 17 18 15 15 14 15 17 17 16 16 15 14 14 13 12 12 12 12 11 8 8 6 6 7 8 8 7 7 6 5 4 5 5 6 6 6 7 7 7 7 6 6 6 5 5 5 5 4 4
11 9 10 15 16 16 17 16 15 14 15 15 16 16 17 16 16 17 15 16 17 16 15 16 16 16 15 14 13 13 13 12 11 11 12 11 11 11 9 8 8 7 7 6 6 5 5 6 6 6 7 7 7 7 7 6 6 6 6 5 5 5 5
11 10 11 11 16 17 18 18 18 18 17 18 18 19 19 16 17 15 16 17 18 17 17 16 16 15 14 14 14 13 14 13 13 13 13 12 11 10 8 8 7 7 7 7 7 6 5 6 7 7 7 7 7 7 7 7 7 7 7 6 5 6 6
14 13 9 8 11 15 15 16 17 17 18 18 18 18 18 17 17 16 16 17 19 19 19 19 16 16 14 15 12 12 14 15 14 13 12 11 10 9 9 11 9 10 8 7 7 6 6 6 6 7 7 7 7 7 7 7 8 7 7 7 6 6 6
13 12 11 9 9 13 14 15 17 17 16 17 17 17 16 18 17 19 18 17 16 16 16 17 17 16 15 16 14 13 13 13 12 12 11 10 10 10 11 11 11 11 10 9 7 8 8 7 7 7 8 7 8 8 7 8 8 8 7 7 6 6 6
12 12 12 11 6 10 12 15 17 16 16 16 15 14 15 16 18 18 17 17 18 17 18 17 16 15 13 13 14 14 15 15 13 14 13 13 12 12 11 11 11 11 10 8 9 8 9 9 8 8 8 8 7 8 7 7 7 7 7 7 7 7 7
14 13 15 14 14 8 7 13 13 13 14 13 13 14 15 15 15 16 16 16 17 16 16 17 16 14 13 13 12 15 15 15 13 13 12 14 13 13 12 11 11 11 9 10 10 10 10 10 9 9 9 8 8 8 8 7 7 7 7 7 8 8 6
15 15 15 16 15 13 14 12 3 11 15 14 15 14 15 15 15 16 17 16 15 16 17 17 16 15 13 14 13 15 14 14 14 13 15 15 14 15 14 13 12 10 11 12 11 10 11 10 11 9 9 9 8 8 8 8 8 8 8 8 8 9 8
15 15 16 17 15 15 14 12 12 13 10 6 12 11 15 14 13 14 15 15 15 17 15 14 13 13 14 14 14 15 14 14 13 15 15 16 14 15 15 13 12 11 12 12 11 10 11 11 11 10 9 10 9 9 9 9 9 8 8 9 9 9 9
14 15 16 18 17 17 17 17 16 12 10 10 4 10 11 11 12 14 15 16 17 16 17 15 13 13 13 15 16 15 15 15 15 15 16 16 14 16 15 15 13 11 13 12 12 12 10 10 10 10 10 10 11 11 10 10 10 9 9 9 9 9 9
14 14 15 17 18 19 17 14 14 15 14 11 10 4 8 10 13 12 13 16 15 15 16 17 16 16 15 15 15 15 16 15 15 16 17 17 16 16 15 14 13 13 12 13 13 12 11 11 10 10 12 12 11 11 11 10 10 10 10 10 9 9 9
13 13 14 16 16 15 16 18 18 16 16 14 13 12 5 8 11 11 8 11 14 14 14 15 16 15 15 16 17 15 16 16 16 15 16 15 15 14 13 14 14 14 13 13 14 13 13 12 12 11 12 12 12 12 11 11 11 10 10 10 10 9 9
15 16 16 15 16 17 17 16 16 17 16 16 15 13 11 10 4 6 9 11 12 13 13 12 14 14 15 14 15 15 16 16 16 15 14 14 13 13 14 13 13 13 13 12 14 14 14 14 14 12 11 12 12 12 10 10 10 10 10 10 10 10 10
16 16 17 17 15 14 14 15 15 16 16 15 16 15 14 12 10 9 3 8 10 10 13 12 13 14 14 14 14 14 14 14 14 13 13 13 12 13 13 13 13 12 12 12 13 12 14 14 14 13 12 12 11 11 10 10 10 10 10 10 11 11 11
15 15 16 16 15 15 13 13 13 13 14 15 16 16 14 12 12 10 8 6 4 9 12 10 13 13 14 15 15 13 13 12 11 11 12 12 12 13 13 13 13 13 13 13 13 12 11 12 12 13 13 12 12 11 10 10 9 11 15 13 10 11 10
14 15 15 15 16 16 15 14 14 14 15 15 15 15 13 12 11 10 9 8 7 7 5 10 12 14 15 15 15 13 12 11 12 11 11 12 12 11 12 13 12 12 12 12 12 12 11 12 13 13 13 14 13 13 12 11 11 15 15 16 16 11 10
14 14 15 15 15 16 17 17 16 15 15 15 15 14 13 13 12 11 11 9 9 8 6 6 8 14 14 14 12 11 11 12 12 12 12 12 12 12 12 11 11 11 12 12 13 12 12 13 14 13 14 13 14 14 14 13 15 16 16 17 17 15 12
13 13 13 13 14 14 15 15 15 14 13 12 12 13 13 13 12 12 11 9 9 7 7 7 7 7 11 12 11 11 10 10 10 12 12 12 12 11 10 11 12 12 12 14 14 12 12 13 14 14 14 14 14 15 15 14 15 16 17 17 18 18 15
13 13 14 13 13 12 12 12 13 14 13 12 12 12 11 11 11 12 11 9 7 8 6 7 7 7 7 8 10 8 8 7 9 9 9 8 7 7 9 11 13 14 14 12 11 12 13 14 15 14 13 14 14 13 14 15 14 17 18 18 18 18 15
11 13 14 14 14 14 13 13 12 13 15 15 14 12 12 11 12 11 11 10 8 7 7 7 8 8 6 7 2 5 6 7 7 7 4 3 5 7 8 11 11 12 12 12 13 13 13 14 15 14 14 15 15 14 14 14 17 15 18 18 19 18 15
11 11 13 12 14 14 14 14 13 14 14 13 13 13 11 12 12 11 11 10 8 7 7 6 5 5 8 5 4 4 3 3 5 6 8 10 11 11 12 12 12 12 11 11 12 12 12 12 13 14 15 15 15 15 15 16 17 16 17 19 18 17 11
10 10 11 11 11 12 12 12 12 12 12 12 11 12 12 12 12 12 10 11 10 8 8 8 6 4 5 5 1 2 4 2 7 8 8 10 10 12 14 15 15 13 12 13 14 14 13 14 14 14 14 15 15 16 15 15 15 17 18 18 19 13 10
10 10 10 11 11 10 11 12 13 12 11 13 12 12 12 12 11 12 10 9 10 8 7 8 7 7 7 6 3 1 2 4 6 7 8 8 11 12 11 10 10 12 12 13 15 16 16 14 13 14 14 15 16 16 16 16 15 17 18 19 19 16 12
11 11 11 11 12 12 12 11 11 13 12 12 13 12 12 13 12 11 11 11 9 8 8 8 8 8 9 9 8 7 5 3 5 6 8 9 10 11 10 11 11 10 10 13 14 16 15 14 13 13 13 15 17 16 17 16 15 17 19 20 19 17 11
12 12 12 12 11 12 12 10 10 11 12 13 13 12 12 12 11 11 10 11 11 9 9 9 10 10 9 9 9 8 7 6 4 5 7 9 10 10 10 10 11 12 13 14 13 14 15 14 14 15 14 14 15 14 16 17 15 13 20 20 20 21 13
10 11 12 12 12 12 11 10 10 10 11 10 11 12 11 10 11 11 10 9 9 11 11 11 11 11 10 9 9 9 8 7 7 6 6 7 10 11 10 10 11 10 13 16 16 16 14 15 15 14 15 14 14 15 16 15 16 14 20 20 21 22 19
11 11 11 11 13 12 11 11 11 12 12 10 10 11 10 9 10 9 9 9 9 11 11 11 11 10 10 10 10 10 9 8 8 8 7 6 5 6 9 10 10 8 9 10 10 15 16 15 14 14 14 14 14 14 15 14 16 14 16 21 21 21 24
12 12 12 12 12 12 12 12 12 12 12 11 10 10 9 9 9 10 9 9 9 9 10 10 11 11 10 10 11 10 10 8 9 8 6 6 7 8 8 7 10 12 11 11 12 15 18 15 14 14 14 13 12 12 13 14 12 17 12 17 21 22 23
12 12 12 13 12 12 12 13 13 13 12 11 10 9 9 8 8 8 10 11 9 8 9 9 10 10 10 9 10 11 11 11 10 9 7 7 7 8 9 9 8 9 10 10 9 11 14 16 15 16 17 18 16 16 15 13 13 13 19 15 21 21 23
11 12 13 13 14 12 11 11 14 15 14 11 10 9 8 7 7 9 10 10 9 10 10 9 9 10 10 11 11 11 11 11 10 10 8 7 7 7 8 10 9 9 8 9 9 11 14 18 16 16 17 17 17 16 15 15 13 12 14 20 19 22 23
12 11 12 13 13 13 12 12 13 15 17 15 12 10 8 8 8 10 9 8 8 9 9 10 10 10 11 12 12 11 10 12 12 11 10 10 8 8 8 8 9 9 7 7 9 10 13 16 16 17 16 16 16 17 16 15 12 13 11 12 17 18 22
13 12 12 13 13 13 13 13 12 14 16 18 15 11 10 10 9 9 8 8 7 8 8 9 10 10 10 11 12 12 11 11 10 9 10 10 8 6 7 8 8 8 8 8 9 11 14 16 17 18 18 17 17 16 15 15 14 12 12 11 10 11 12
14 13 13 13 13 13 14 14 14 14 15 16 15 11 10 10 10 9 9 9 8 7 7 9 9 10 10 11 11 11 11 10 13 12 9 9 8 7 7 7 8 8 9 11 12 13 16 18 18 17 16 15 14 13 14 14 13 13 13 13 12 11 11
15 15 15 15 14 14 13 14 15 15 16 16 15 13 11 11 10 10 9 7 7 6 7 8 11 11 11 11 10 10 9 9 9 9 9 8 8 8 8 8 8 8 9 11 12 15 17 17 17 15 14 14 13 12 12 12 13 14 14 13 13 12 11
17 17 17 15 14 15 16 16 16 16 16 15 15 13 12 12 11 9 8 7 7 6 6 8 9 10 11 9 9 10 10 9 8 9 9 10 9 9 10 11 12 10 11 12 14 17 17 14 16 17 12 13 13 12 13 13 14 13 10 13 13 13 14
19 18 18 16 16 17 17 17 17 16 17 16 14 15 13 12 11 10 8 6 5 5 6 7 7 8 9 9 9 10 10 10 10 10 9 9 9 8 9 11 9 13 17 17 17 20 25 23 23 24 20 13 14 13 14 17 16 10 6 12 14 14 16
20 20 19 18 17 19 19 19 18 17 17 15 15 15 14 13 12 10 9 7 5 5 6 7 8 8 8 9 10 11 11 9 10 11 11 10 9 8 9 9 11 12 9 13 17 18 20 24 25 23 21 22 19 14 13 14 16 16 9 12 14 16 16
Wind_Direction
207 209 206 203 202 203 200 200 195 190 188 189 190 193 193 191 186 180 181 181 186 186 184 185 187 189 193 195 196 194 194 192 191 194 194 199 200 199 199 207 210 209 211 213 208 204 204 199 197 202 201 202 208 209 209 210 217 223 222 216 214 222 232
229 213 210 207 204 204 201 190 193 190 191 192 191 191 192 191 186 183 182 180 185 186 184 186 188 191 193 194 194 193 194 197 194 192 193 190 191 199 203 201 206 206 205 214 204 204 200 196 201 205 207 205 210 208 205 208 213 220 226 215 220 224 222
357 331 243 214 211 207 202 194 191 191 196 193 191 190 191 190 185 184 182 183 186 189 187 189 189 191 191 192 191 194 197 199 197 197 199 201 200 205 203 204 206 212 212 205 207 207 201 203 199 207 210 213 213 202 204 207 210 217 222 219 222 227 223
352 331 317 277 221 209 203 198 195 195 197 195 193 192 192 188 185 184 185 185 186 187 188 190 192 193 191 190 193 194 197 200 202 203 206 205 197 196 193 199 203 210 204 207 207 204 202 198 201 206 207 216 214 209 203 209 211 212 217 218 228 229 230
350 343 332 302 248 218 208 203 204 201 199 198 194 190 192 189 188 191 191 192 191 190 190 190 192 194 193 192 193 197 199 200 200 203 204 204 194 189 197 205 202 208 211 204 196 194 198 202 208 206 207 213 220 212 207 203 210 206 213 215 228 229 234
354 348 340 319 266 229 214 209 207 204 203 201 196 190 193 191 192 195 194 193 195 195 193 193 194 191 191 192 195 197 198 199 199 198 200 198 190 197 202 203 204 205 206 204 200 202 198 207 211 210 210 212 218 223 217 208 209 209 209 213 224 230 236
2 360 357 349 303 234 218 211 207 207 207 204 199 190 190 192 194 197 195 196 195 193 194 194 195 195 195 192 197 196 195 197 196 200 201 203 201 202 203 203 204 205 209 195 201 197 200 204 209 209 212 218 219 222 218 210 208 206 208 211 217 223 230
15 12 12 11 19 14 239 212 209 211 207 194 192 187 183 192 193 195 197 197 195 196 196 195 194 196 192 194 197 200 200 202 201 202 202 204 203 204 204 206 203 203 197 201 201 198 204 205 209 210 211 216 219 219 219 213 207 210 210 213 217 223 221
17 20 20 23 24 28 29 20 319 214 206 201 196 184 180 187 192 194 196 197 197 198 199 198 199 195 192 193 194 199 201 201 202 198 200 204 206 208 209 207 207 201 203 209 208 201 206 205 208 205 204 214 216 213 217 215 214 212 212 213 214 219 226
19 19 20 25 29 32 31 30 27 23 7 226 193 181 184 189 192 192 191 197 201 204 198 205 202 197 194 194 200 201 200 201 203 201 202 206 209 211 211 209 206 202 208 212 213 204 202 205 205 200 201 209 212 213 216 214 214 215 214 215 216 218 221
20 21 24 24 28 29 31 31 27 19 14 11 337 196 183 180 184 191 191 193 200 200 192 199 203 208 203 199 202 203 204 206 204 205 206 208 210 212 210 209 206 202 207 211 216 215 205 201 201 201 202 209 211 211 213 215 214 215 221 221 220 219 222
18 22 24 24 24 26 27 26 24 21 19 16 16 343 193 180 188 187 191 194 197 198 192 195 199 202 202 201 203 206 207 207 206 208 208 208 211 212 210 208 208 204 203 206 212 213 212 204 202 203 205 210 212 211 211 210 209 211 218 222 221 219 222
22 23 22 23 23 22 23 22 20 18 16 18 20 16 10 210 199 191 187 196 200 203 198 193 195 197 200 199 202 204 207 206 207 207 208 208 211 211 210 209 209 208 207 204 208 210 213 212 207 205 207 208 212 215 213 210 209 209 212 217 219 218 220
23 26 25 23 20 18 19 17 15 15 14 13 14 16 18 18 15 223 212 207 207 204 202 198 196 195 198 201 203 204 206 207 207 208 208 208 207 209 210 210 209 210 209 205 207 211 214 214 211 209 209 211 212 215 214 210 210 209 211 213 214 216 220
22 22 20 20 16 14 14 15 12 9 10 8 9 10 13 14 11 17 357 228 224 216 210 202 197 197 197 201 205 207 207 206 206 208 206 204 203 205 208 209 209 207 207 205 208 211 215 216 217 214 212 215 215 216 216 216 216 214 211 212 214 217 221
21 21 19 15 11 10 7 6 9 10 7 6 5 4 5 5 6 5 8 9 317 240 223 207 202 197 204 206 207 206 201 197 200 205 206 204 206 207 207 210 209 208 207 209 210 212 213 215 216 217 215 214 215 217 219 220 221 215 210 210 214 213 221
18 16 15 11 8 5 4 3 3 5 7 3 359 359 358 355 358 354 2 9 358 350 309 228 208 206 205 210 209 205 199 197 201 202 200 203 207 206 206 210 212 212 212 211 209 210 207 206 211 216 220 220 220 218 219 223 225 217 208 211 215 220 220
15 12 10 8 5 3 1 360 2 2 357 353 353 354 353 353 349 353 359 352 360 353 334 325 254 221 213 214 208 202 199 204 203 201 206 204 207 207 206 208 210 212 209 208 210 206 209 212 215 217 219 221 222 222 222 224 223 212 207 209 212 215 224
9 7 8 5 3 3 1 355 354 354 350 347 349 347 348 349 346 348 342 350 354 355 7 1 343 303 240 225 217 207 203 204 203 205 209 208 207 206 204 205 211 216 217 217 216 214 210 215 215 215 217 221 222 224 225 229 220 207 206 207 208 210 216
2 1 2 3 1 360 357 353 350 345 344 343 342 346 345 347 345 337 336 343 347 7 20 30 19 9 339 251 221 207 208 208 214 217 221 218 222 216 212 212 217 222 223 223 216 213 213 216 218 219 217 219 223 225 228 230 225 204 205 207 208 208 206
1 359 356 355 354 355 353 352 349 345 341 340 341 344 346 349 348 337 338 338 349 353 15 26 34 29 33 30 356 203 194 180 179 196 198 218 239 242 232 232 233 230 227 226 219 213 214 218 220 220 218 219 220 224 229 233 229 204 203 206 207 207 202
358 355 355 351 349 348 349 349 344 343 339 332 337 341 346 345 341 342 336 335 347 357 6 9 33 30 3 27 62 69 82 143 188 194 171 184 190 202 210 221 228 232 230 234 234 230 227 222 223 223 222 222 223 226 231 235 221 204 202 204 207 201 202
349 347 345 348 347 343 343 343 343 340 335 338 340 344 344 343 341 338 341 347 345 360 20 19 24 23 284 273 353 75 103 172 218 222 209 210 206 208 210 205 206 212 220 231 235 237 231 227 223 223 225 225 222 224 229 235 217 200 201 202 202 190 209
343 341 340 341 342 340 342 341 340 341 342 342 344 348 342 342 343 336 340 347 341 352 24 7 4 353 331 332 347 143 186 238 252 249 231 211 215 220 229 231 224 211 200 216 230 236 235 232 230 228 226 225 225 222 226 233 221 195 199 200 194 191 204
335 335 334 336 338 340 341 340 334 334 340 346 349 345 344 343 342 344 341 340 342 351 360 360 350 341 333 329 326 319 297 250 222 218 224 226 221 220 220 223 225 224 219 223 226 232 235 232 234 232 229 229 229 222 225 235 227 193 198 198 193 193 209
329 331 330 328 331 337 333 331 329 335 339 341 345 339 343 343 343 344 343 339 337 343 347 347 340 335 327 318 315 314 303 296 273 226 219 222 228 228 219 222 231 230 228 231 231 233 231 230 230 233 233 232 230 229 225 232 237 201 195 194 193 192 202
315 320 321 323 325 329 325 327 331 332 330 334 331 336 339 342 341 342 342 339 339 340 336 333 328 328 326 318 314 308 299 291 280 262 234 214 215 218 218 217 224 235 242 235 238 235 232 233 234 234 236 235 234 234 231 232 232 218 188 194 190 194 198
306 307 305 311 316 318 320 321 324 322 326 329 327 331 333 334 336 334 338 337 340 335 327 324 326 325 324 319 311 304 296 291 285 282 277 263 243 217 213 215 211 208 235 256 256 246 237 237 235 236 238 239 235 235 234 230 222 232 192 191 190 192 197
299 302 304 305 305 309 314 315 315 316 320 322 324 328 323 326 325 327 330 332 334 327 322 322 321 319 317 316 309 303 296 288 282 278 275 275 271 259 240 209 200 209 211 223 240 246 248 234 234 236 239 239 238 236 234 231 225 216 210 188 192 191 198
289 290 293 296 297 299 306 306 306 308 310 314 314 314 316 315 313 316 320 322 330 321 318 317 318 315 312 310 309 306 301 295 291 283 279 276 271 266 262 247 224 205 201 204 213 232 245 253 247 245 247 247 246 248 245 235 231 209 210 199 190 195 199
285 287 289 294 297 298 294 295 301 303 302 304 308 307 309 306 302 308 310 318 321 320 319 317 315 314 311 309 306 303 299 297 293 290 282 267 258 261 255 251 250 236 212 197 200 223 239 251 251 247 246 246 245 247 247 243 231 232 201 199 189 196 201
279 278 281 286 290 293 294 294 293 296 298 299 300 303 303 304 300 302 306 308 313 314 314 315 316 315 310 306 303 301 301 297 295 291 289 280 263 258 255 245 234 235 238 224 210 218 237 248 248 247 245 245 246 244 245 242 238 231 219 189 199 200 204
288 286 285 283 285 291 292 293 291 290 294 295 299 298 297 301 297 294 300 299 302 309 310 309 305 304 305 301 301 300 299 296 291 295 294 287 277 264 262 261 256 246 223 223 230 230 239 242 244 244 244 244 243 242 241 242 237 229 226 211 197 201 202
291 290 286 285 284 284 284 285 285 285 288 289 293 295 293 294 292 291 291 296 300 305 306 301 300 303 305 301 300 297 299 295 292 291 289 294 295 291 284 276 272 259 248 240 236 234 235 237 239 239 238 237 234 234 235 233 230 228 224 221 213 204 192
290 288 288 286 284 281 278 279 281 281 282 283 286 288 288 286 287 284 282 281 289 295 295 296 298 299 298 299 297 293 292 291 294 293 295 297 294 292 287 279 273 275 279 264 249 244 244 246 243 238 235 232 231 225 224 226 229 228 219 217 210 207 207
288 287 285 283 282 279 276 274 274 276 276 277 281 283 282 285 282 275 271 273 281 282 283 292 296 297 296 297 296 293 293 294 295 296 294 293 293 293 286 265 253 264 270 274 286 295 281 263 255 254 250 246 240 229 227 225 227 236 210 212 213 211 213
287 285 282 282 281 278 274 274 273 273 272 273 276 278 279 278 278 272 264 256 247 245 270 280 285 287 289 290 288 291 293 294 293 293 291 290 292 290 290 295 270 231 236 248 255 260 268 269 263 261 260 258 259 244 229 245 261 266 193 200 210 211 216
283 282 282 281 278 277 276 276 275 273 271 272 272 274 275 274 272 271 267 252 218 239 263 273 278 282 283 289 291 295 292 288 290 294 296 295 294 295 301 300 303 305 271 239 247 254 253 256 255 253 249 247 244 251 257 240 238 242 215 198 201 209 214